Total_Precipitation_Accumulation
3.27 3.38 3.48 3.64 3.39 3.42 3.83 4.01 3.79 3.89 3.81 3.48 3.22 2.94 2.81 2.63 2.55 2.57 2.69 2.70 2.57 2.68 3.02 3.19 3.03 2.90 2.66 2.36 2.19 2.13 2.07 1.94 1.84 1.64 1.50 1.60 1.76 1.71 1.43 1.26 1.25 1.13 1.08
3.58 3.76 3.68 3.78 3.56 3.34 3.53 3.76 3.78 4.42 4.24 3.99 3.46 3.12 3.03 2.97 2.80 2.74 2.80 2.92 2.70 2.52 2.68 3.13 3.30 3.19 3.03 2.76 2.52 2.31 2.21 2.12 1.87 1.53 1.42 1.44 1.60 1.69 1.58 1.43 1.31 1.20 1.06
3.54 3.77 3.97 3.92 3.69 3.45 3.63 3.76 3.99 4.29 4.05 3.89 3.59 3.34 3.17 3.08 2.87 2.78 2.98 3.17 2.90 2.77 2.71 2.88 3.21 3.41 3.49 3.49 3.19 2.76 2.39 2.13 1.92 1.64 1.45 1.35 1.47 1.57 1.52 1.51 1.41 1.23 1.06
3.55 3.77 3.74 3.65 3.74 3.66 3.85 4.12 4.23 4.28 4.20 4.05 3.82 3.48 3.25 3.26 2.79 2.65 2.70 2.81 2.92 2.69 2.86 3.13 3.34 3.40 3.64 3.83 3.77 3.65 3.17 2.56 2.17 1.83 1.57 1.42 1.44 1.46 1.43 1.45 1.45 1.28 1.08
3.34 3.60 3.62 3.70 3.78 3.79 3.82 3.52 4.08 4.10 4.17 4.06 3.49 3.31 3.01 3.02 2.90 2.54 2.49 2.34 2.49 2.56 2.58 2.73 3.01 3.12 3.63 4.03 4.20 4.25 4.10 3.47 2.73 2.29 2.09 1.89 1.77 1.60 1.45 1.44 1.44 1.37 1.20
3.37 3.60 3.60 3.71 3.73 3.84 3.88 3.82 4.09 4.05 3.87 3.85 3.16 3.02 2.88 2.61 2.55 2.52 2.31 2.23 2.32 2.19 2.31 2.56 2.87 2.62 3.10 3.57 3.77 4.12 4.43 4.23 3.60 3.08 2.85 2.67 2.45 2.10 1.76 1.63 1.62 1.58 1.43
3.49 3.83 3.72 4.04 3.92 3.72 3.68 3.76 4.02 3.91 3.63 3.67 3.71 3.21 2.62 2.29 2.33 2.22 2.29 2.38 2.23 2.22 2.44 2.80 2.92 2.74 2.50 2.64 2.71 3.09 3.90 4.49 4.37 3.92 3.58 3.25 3.06 2.81 2.25 2.04 1.95 1.85 1.74
3.44 3.45 3.80 3.74 3.75 3.85 3.73 3.72 3.95 3.76 3.33 3.48 3.79 3.79 3.07 2.82 2.33 1.86 2.10 2.22 2.29 2.53 2.60 2.61 2.93 3.06 2.78 2.89 2.31 2.25 3.06 4.03 4.58 4.61 4.21 3.76 3.47 3.28 2.91 2.72 2.43 2.11 1.96
3.08 3.22 3.35 3.48 3.79 3.66 3.70 3.77 3.70 3.63 3.35 3.30 3.49 3.83 3.40 2.93 2.41 1.87 1.81 2.09 2.46 2.66 2.62 2.69 2.79 2.97 3.05 3.30 3.11 2.61 2.51 2.85 3.75 4.63 4.68 4.24 3.72 3.35 3.25 3.31 3.10 2.63 2.30
3.02 3.07 3.15 3.28 3.45 3.28 3.37 3.05 3.17 3.47 3.60 3.31 3.42 3.33 3.24 3.11 2.98 2.41 2.03 2.03 2.31 2.48 2.67 2.65 2.76 2.91 3.16 3.58 3.63 3.10 2.64 2.40 2.76 3.79 4.58 4.69 4.28 3.80 3.71 3.86 4.00 3.63 2.99
3.04 3.02 3.02 3.05 3.04 2.87 2.95 2.91 3.15 3.16 3.18 3.17 3.25 3.32 3.41 3.32 3.10 2.92 2.58 2.45 2.37 2.15 2.24 2.44 2.67 2.81 3.03 3.43 3.61 3.25 3.11 2.84 2.70 2.91 3.53 4.13 4.30 4.16 3.96 4.03 4.39 4.52 4.11
2.84 2.78 2.74 2.78 2.77 2.75 2.80 2.87 3.01 2.92 2.96 3.11 3.16 3.18 3.33 3.31 3.33 3.32 2.80 2.59 2.41 1.98 1.96 1.97 2.18 2.43 2.82 3.15 3.02 3.08 3.00 2.78 2.60 2.58 2.67 3.10 3.45 3.66 3.76 4.00 4.48 4.97 5.07
2.32 2.43 2.38 2.53 2.55 2.60 2.64 2.75 2.84 2.81 2.94 3.09 3.01 3.07 3.13 3.07 3.18 3.27 3.14 2.69 2.42 2.07 2.15 2.10 2.09 2.29 2.42 2.82 2.85 2.76 2.54 2.45 2.24 2.18 2.15 2.30 2.56 2.80 3.03 3.35 3.84 4.39 4.84
2.00 2.20 2.34 2.37 2.36 2.39 2.48 2.74 2.59 2.63 2.82 2.85 2.77 3.18 3.06 2.81 2.94 3.04 3.20 3.30 2.90 2.48 2.48 2.35 2.25 2.26 2.38 2.59 2.58 2.51 2.26 2.20 1.95 1.82 1.75 1.74 1.75 1.88 2.11 2.40 2.77 3.08 3.42
2.05 2.12 2.17 2.27 2.36 2.49 2.66 2.81 2.64 2.75 2.97 2.84 2.94 3.21 3.07 2.90 2.91 2.90 3.18 3.49 3.50 3.09 2.76 2.54 2.36 2.28 2.26 2.22 2.33 2.16 2.12 2.14 1.92 1.76 1.62 1.50 1.44 1.42 1.51 1.66 1.89 2.14 2.33
2.12 2.00 1.95 2.02 2.09 2.20 2.39 2.55 2.45 2.60 2.84 2.80 2.84 2.98 2.94 2.88 3.08 3.07 3.18 3.44 3.65 3.58 2.97 2.72 2.61 2.29 2.34 1.97 2.14 2.02 1.99 1.97 1.76 1.63 1.53 1.48 1.44 1.42 1.42 1.45 1.54 1.68 1.85
2.05 1.98 1.96 1.96 1.93 1.91 2.00 2.16 2.16 2.38 2.43 2.44 2.41 2.50 2.50 2.75 2.96 2.92 3.08 3.25 3.49 3.73 3.31 3.03 3.06 2.77 2.72 2.44 2.20 2.00 1.77 1.72 1.60 1.57 1.44 1.36 1.34 1.33 1.35 1.33 1.31 1.37 1.50
1.83 1.93 1.97 1.89 1.76 1.80 1.95 1.96 2.01 2.24 2.34 2.32 2.32 2.42 2.29 2.49 2.62 2.69 2.89 3.04 3.30 3.71 3.54 3.26 3.18 3.05 2.90 2.66 2.44 2.20 1.76 1.53 1.55 1.67 1.49 1.35 1.29 1.25 1.26 1.24 1.18 1.15 1.18
1.66 1.74 1.78 1.73 1.69 1.81 2.02 2.11 2.23 2.29 2.19 2.18 2.16 2.09 2.03 2.22 2.27 2.45 2.62 2.64 2.84 3.24 3.32 3.02 2.90 3.12 2.97 2.75 2.76 2.42 2.11 2.01 1.56 1.58 1.50 1.32 1.26 1.18 1.17 1.20 1.18 1.11 1.07
1.61 1.68 1.74 1.87 1.93 1.93 1.90 1.94 2.09 2.23 2.21 2.05 1.89 1.78 1.80 1.97 1.98 2.14 2.21 2.41 2.60 2.73 2.93 2.89 2.78 2.90 2.91 2.82 2.97 2.75 2.55 2.38 2.01 1.65 1.64 1.39 1.27 1.20 1.16 1.13 1.13 1.14 1.15
1.55 1.74 1.97 2.06 2.05 1.95 1.80 1.90 2.01 1.91 1.92 1.82 1.66 1.53 1.48 1.49 1.56 1.71 1.68 1.96 2.26 2.36 2.44 2.57 2.59 2.68 2.90 3.03 2.90 2.89 2.73 2.56 2.35 2.12 2.06 1.65 1.35 1.18 1.15 1.15 1.17 1.21 1.24
1.60 1.78 1.82 1.85 1.80 1.61 1.75 1.65 1.58 1.59 1.61 1.62 1.63 1.61 1.44 1.34 1.32 1.38 1.40 1.48 1.69 1.83 2.03 2.29 2.37 2.47 2.71 2.99 3.07 3.07 2.96 2.73 2.51 2.32 2.42 2.36 1.96 1.68 1.45 1.21 1.21 1.23 1.30
1.71 1.70 1.64 1.66 1.67 1.78 1.67 1.44 1.37 1.35 1.46 1.54 1.60 1.58 1.33 1.21 1.28 1.23 1.32 1.31 1.38 1.45 1.57 1.83 1.96 2.03 2.30 2.63 2.98 3.03 3.09 2.90 2.65 2.58 2.67 2.69 2.73 2.47 1.87 1.52 1.45 1.27 1.32
1.82 1.73 1.57 1.57 1.59 1.57 1.55 1.38 1.38 1.27 1.32 1.43 1.50 1.55 1.53 1.47 1.38 1.41 1.43 1.36 1.24 1.26 1.31 1.25 1.35 1.61 1.83 2.11 2.51 2.68 2.96 3.11 2.93 2.82 2.84 2.91 2.91 3.12 2.60 2.05 1.89 1.62 1.53
1.76 1.82 1.73 1.65 1.61 1.59 1.56 1.40 1.39 1.30 1.37 1.41 1.53 1.57 1.55 1.47 1.48 1.46 1.44 1.42 1.28 1.22 1.22 1.22 1.21 1.35 1.58 1.74 2.04 2.36 2.65 2.87 2.94 3.00 3.06 3.12 3.01 3.15 3.41 2.92 2.23 1.89 1.62
2.01 2.06 1.94 1.86 1.88 1.90 1.94 1.73 1.62 1.46 1.47 1.50 1.62 1.62 1.54 1.46 1.56 1.46 1.31 1.35 1.33 1.35 1.40 1.35 1.35 1.38 1.42 1.59 1.88 2.13 2.41 2.70 2.74 2.82 2.66 2.67 2.69 2.82 3.25 3.40 2.98 2.33 1.88